1508860800.87,62902,11.13,73822.8,-6.33,-32.79,-37.03,0,*51
1508860802.08,62903,11.06,73822.0,-6.31,-32.69,-36.85,0,*5C
1508860803.35,62904,11.06,73818.3,-6.33,-32.63,-36.91,0,*56
1508860804.61,62905,11.13,73820.5,-6.33,-32.79,-37.03,0,*56
1508860805.9,62906,11.13,73822.0,-6.33,-32.79,-36.91,0,*5F
1508860807.18,62907,11.06,73822.0,-6.33,-32.79,-37.09,0,*5E
1508860808.46,62908,11.06,73822.0,-6.33,-32.85,-36.91,0,*52
1508860809.75,62909,11.13,73818.5,-6.33,-32.85,-37.21,0,*59
1508860811.03,62910,11.13,73820.0,-6.33,-32.85,-37.21,0,*51
1508860812.28,62911,11.13,73818.8,-6.33,-32.97,-37.27,0,*55
1508860813.51,62912,11.06,73814.5,-6.35,-32.63,-36.73,0,*5B
1508860814.77,62913,11.06,73818.0,-6.33,-32.75,-36.85,0,*52
1508860816.06,62914,11.06,73816.0,-6.33,-32.79,-37.09,0,*5C
1508860817.34,62915,11.06,73820.8,-6.33,-32.97,-37.21,0,*57
1508860818.54,62916,11.06,73818.3,-6.35,-33.03,-37.27,0,*58
1508860819.77,62917,11.06,73814.3,-6.37,-32.91,-37.15,0,*50
1508860820.99,62918,11.06,73818.0,-6.37,-32.91,-37.15,0,*5F
1508860822.23,62919,11.06,73810.8,-6.35,-32.79,-37.03,0,*5D
1508860823.49,62920,11.06,73814.8,-6.35,-32.75,-36.91,0,*51
1508860824.75,62921,11.06,73814.8,-6.37,-32.69,-36.79,0,*59
1508860825.98,62922,11.06,73812.0,-6.35,-32.75,-36.85,0,*56
1508860827.24,62923,11.06,73814.5,-6.37,-32.69,-36.91,0,*5D
1508860828.49,62924,11.06,73812.5,-6.37,-32.69,-36.91,0,*5A
1508860829.73,62925,11.06,73812.5,-6.35,-32.79,-36.73,0,*54
1508860830.96,62926,11.06,73812.0,-6.35,-32.63,-36.85,0,*55
1508860832.22,62927,11.06,73812.3,-6.35,-32.79,-36.91,0,*5A
1508860833.47,62928,11.06,73814.8,-6.37,-32.85,-36.97,0,*52
1508860834.73,62929,11.06,73812.8,-6.37,-32.85,-36.97,0,*53
1508860836.0,62930,11.13,73816.0,-6.37,-32.63,-36.91,0,*55
1508860837.28,62931,11.06,73810.3,-6.37,-32.63,-36.91,0,*54
1508860838.54,62932,11.06,73812.3,-6.35,-32.63,-36.91,0,*55
1508860839.82,62933,11.06,73816.8,-6.37,-32.79,-36.91,0,*5D
1508860841.09,62934,11.13,73818.8,-6.37,-32.63,-36.79,0,*57
1508860842.32,62935,11.06,73816.0,-6.35,-32.63,-36.85,0,*57
1508860843.55,62936,11.06,73818.0,-6.33,-32.57,-36.73,0,*5C
1508860844.79,62937,11.06,73812.8,-6.35,-32.63,-36.73,0,*5C
1508860846.02,62938,11.06,73808.8,-6.35,-32.29,-36.55,0,*59
1508860847.26,62939,11.06,73814.3,-6.35,-32.45,-36.67,0,*53
1508860848.49,62940,11.06,73812.5,-6.35,-32.45,-36.67,0,*5D
1508860849.75,62941,11.06,73814.0,-6.33,-32.63,-36.85,0,*52
1508860850.97,62942,11.06,73812.8,-6.35,-32.23,-36.49,0,*53
1508860852.21,62943,11.06,73814.8,-6.35,-32.29,-36.67,0,*54
1508860853.42,62944,11.06,73810.0,-6.35,-32.39,-36.67,0,*52
1508860854.63,62945,11.06,73808.0,-6.35,-32.57,-36.67,0,*5B
1508860855.91,62946,11.06,73810.3,-6.37,-32.45,-36.79,0,*56
1508860857.12,62947,11.06,73812.3,-6.35,-32.39,-36.67,0,*51
1508860858.33,62948,11.06,73812.3,-6.35,-32.39,-36.67,0,*5E
1508860859.54,62949,11.06,73816.3,-6.35,-32.39,-36.67,0,*5F
1508860860.79,62950,11.06,73816.8,-6.33,-32.63,-36.85,0,*52
1508860862.05,62951,11.06,73818.0,-6.33,-32.63,-36.85,0,*53
1508860863.28,62952,11.06,73820.0,-6.35,-32.29,-36.67,0,*54
1508860864.51,62953,11.06,73816.0,-6.37,-32.51,-36.73,0,*5D
1508860865.72,62954,11.06,73818.8,-6.35,-32.39,-36.67,0,*53
1508860866.96,62955,11.06,73822.8,-6.35,-32.45,-36.67,0,*59
1508860868.19,62956,11.13,73820.0,-6.33,-32.57,-36.73,0,*5A
1508860869.42,62957,11.13,73818.5,-6.35,-32.45,-36.85,0,*57
1508860870.65,62958,11.06,73816.0,-6.31,-32.57,-36.79,0,*5C
1508860871.87,62959,11.06,73818.5,-6.33,-32.57,-36.85,0,*5C
1508860873.11,62960,11.06,73818.8,-6.33,-32.39,-36.67,0,*52
1508860874.37,62961,11.06,73822.5,-6.33,-32.45,-36.67,0,*58
1508860875.62,62962,11.06,73818.0,-6.33,-32.63,-36.85,0,*53
1508860876.9,62963,11.06,73818.8,-6.33,-32.79,-36.91,0,*5C
1508860878.16,62964,11.06,73818.5,-6.33,-32.75,-37.03,0,*5D
1508860879.37,62965,11.06,73816.3,-6.35,-32.57,-37.03,0,*5A
1508860880.63,62966,11.06,73816.0,-6.33,-32.79,-37.03,0,*53
1508860881.92,62967,11.06,73812.3,-6.33,-32.79,-37.21,0,*52
1508860883.2,62968,11.06,73816.3,-6.33,-32.85,-37.09,0,*54
1508860884.46,62969,11.06,73822.0,-6.35,-32.85,-37.09,0,*53
1508860885.72,62970,11.06,73822.8,-6.37,-32.79,-36.97,0,*5C
1508860886.95,62971,11.06,73830.0,-6.35,-32.69,-36.91,0,*58
1508860888.21,62972,11.06,73824.5,-6.35,-32.63,-36.91,0,*51
1508860889.44,62973,11.06,73826.0,-6.35,-32.79,-37.03,0,*51
1508860890.7,62974,11.06,73828.5,-6.37,-32.79,-36.97,0,*58
1508860891.96,62975,11.06,73822.5,-6.35,-32.79,-37.09,0,*5D
1508860893.17,62976,11.06,73814.0,-6.35,-32.39,-36.67,0,*53
1508860894.38,62977,11.06,73796.5,-6.35,-32.23,-36.55,0,*58
1508860895.6,62978,11.06,73792.5,-6.35,-32.39,-36.67,0,*5D
1508860896.83,62979,11.06,73802.5,-6.35,-32.13,-36.37,0,*51
1508860898.06,62980,11.06,73802.3,-6.35,-31.73,-36.07,0,*51
1508860899.27,62981,11.06,73806.0,-6.35,-32.23,-36.55,0,*51
1508860900.53,62982,11.06,73798.5,-6.33,-31.95,-36.31,0,*58
1508860901.76,62983,11.06,73808.8,-6.31,-31.91,-36.31,0,*5F
1508860902.97,62984,11.06,73808.3,-6.31,-32.01,-36.31,0,*52
1508860904.22,62985,11.13,73812.5,-6.33,-32.45,-36.85,0,*5E
1508860905.43,62986,11.06,73808.0,-6.31,-32.57,-36.85,0,*5C
1508860906.71,62987,11.06,73808.3,-6.33,-32.63,-36.91,0,*5D
1508860907.92,62988,11.06,73812.5,-6.31,-32.69,-36.97,0,*5C
1508860909.19,62989,11.06,73812.3,-6.33,-32.63,-36.91,0,*53
1508860910.42,62990,11.06,73808.3,-6.33,-32.57,-36.85,0,*59
1508860911.63,62991,11.06,73808.5,-6.31,-32.69,-36.97,0,*54
1508860912.86,62992,11.06,73818.3,-6.31,-32.75,-36.85,0,*59
1508860914.09,62993,11.06,73812.3,-6.31,-32.75,-36.97,0,*5B
1508860915.33,62994,11.06,73808.3,-6.33,-32.57,-36.73,0,*54
1508860916.59,62995,11.06,73810.3,-6.33,-32.79,-37.03,0,*5F
1508860917.87,62996,11.06,73810.5,-6.33,-32.75,-37.09,0,*5A
1508860919.08,62997,11.06,73812.0,-6.31,-32.69,-37.03,0,*5E
1508860920.37,62998,11.06,73818.0,-6.33,-32.79,-37.09,0,*58
1508860921.65,62999,11.13,73814.3,-6.33,-32.79,-37.21,0,*53
1508860922.93,63000,11.06,73806.0,-6.33,-32.97,-37.39,0,*52
1508860924.18,63001,11.06,73802.3,-6.33,-32.97,-37.45,0,*58
1508860925.47,63002,11.06,73810.5,-6.33,-32.75,-37.09,0,*5F
1508860926.75,63003,11.06,73810.8,-6.33,-32.79,-37.09,0,*52
1508860928.03,63004,11.06,73810.3,-6.33,-32.85,-37.09,0,*56
1508860929.32,63005,11.06,73816.8,-6.33,-32.85,-37.21,0,*5D
1508860930.6,63006,11.06,73816.0,-6.33,-32.97,-37.39,0,*54
1508860931.88,63007,11.06,73808.0,-6.33,-32.85,-37.21,0,*5F
1508860933.17,63008,11.06,73808.8,-6.33,-32.79,-37.21,0,*53
1508860934.46,63009,11.06,73814.8,-6.33,-32.85,-37.21,0,*51
1508860935.68,63010,11.06,73802.5,-6.35,-32.97,-37.27,0,*5A
1508860936.96,63011,11.06,73800.5,-6.33,-32.85,-37.09,0,*52
1508860938.2,63012,11.06,73808.5,-6.35,-32.85,-37.03,0,*5D
1508860939.41,63013,11.06,73808.8,-6.35,-32.39,-36.67,0,*58
1508860940.67,63014,11.06,73812.3,-6.35,-32.63,-36.91,0,*59
1508860941.93,63015,11.06,73814.5,-6.35,-32.79,-37.21,0,*59
1508860943.19,63016,11.06,73814.0,-6.35,-32.85,-37.21,0,*59
1508860944.45,63017,11.06,73816.5,-6.37,-32.85,-37.15,0,*5D
1508860945.69,63018,11.06,73816.5,-6.35,-32.75,-37.03,0,*58
1508860946.97,63019,11.06,73816.8,-6.37,-32.79,-37.09,0,*5D
1508860948.23,63020,11.06,73818.3,-6.35,-32.79,-37.09,0,*55
1508860949.51,63021,11.06,73818.3,-6.33,-32.85,-37.21,0,*5B
1508860950.74,63022,11.06,73818.5,-6.37,-32.91,-37.33,0,*5A
1508860951.96,63023,11.06,73818.5,-6.35,-32.97,-37.27,0,*5A
1508860953.22,63024,11.06,73810.8,-6.35,-32.97,-37.09,0,*51
1508860954.45,63025,11.06,73808.3,-6.35,-32.85,-37.27,0,*5F
1508860955.71,63026,11.06,73814.5,-6.35,-32.79,-37.09,0,*53
1508860956.93,63027,11.06,73814.3,-6.37,-32.91,-37.27,0,*5A
1508860958.19,63028,11.06,73814.5,-6.37,-32.69,-36.79,0,*58
1508860959.42,63029,11.06,73814.8,-6.35,-32.63,-37.03,0,*5D
1508860960.7,63030,11.06,73814.3,-6.37,-32.85,-37.09,0,*55
1508860961.95,63031,11.06,73812.0,-6.37,-32.85,-37.27,0,*58
1508860963.21,63032,11.06,73808.3,-6.37,-32.63,-36.73,0,*53
1508860964.44,63033,11.06,73808.5,-6.35,-32.45,-36.73,0,*54
1508860965.67,63034,11.06,73814.3,-6.35,-32.29,-36.67,0,*5C
1508860966.93,63035,11.06,73816.0,-6.35,-32.75,-36.91,0,*5D
1508860968.14,63036,11.06,73816.0,-6.35,-32.39,-36.73,0,*5A
1508860969.35,63037,11.06,73818.0,-6.35,-32.57,-36.73,0,*53
1508860970.58,63038,11.06,73818.8,-6.35,-32.63,-36.85,0,*52
1508860971.82,63039,11.06,73816.8,-6.35,-32.75,-37.03,0,*5B
1508860973.08,63040,11.06,73820.3,-6.35,-32.79,-37.09,0,*53
1508860974.32,63041,11.06,73820.8,-6.35,-32.79,-37.03,0,*58
1508860975.57,63042,11.06,73822.0,-6.33,-32.63,-36.73,0,*50
1508860976.8,63043,11.06,73824.3,-6.35,-32.63,-36.85,0,*5E
1508860978.08,63044,11.06,73828.5,-6.37,-32.63,-36.91,0,*5E
1508860979.31,63045,11.06,73822.8,-6.35,-32.63,-37.03,0,*57
1508860980.54,63046,11.06,73818.3,-6.35,-32.57,-36.91,0,*59
1508860981.82,63047,11.06,73820.0,-6.37,-32.45,-36.79,0,*5F
1508860983.07,63048,11.06,73826.3,-6.33,-32.63,-36.85,0,*53
1508860984.33,63049,11.06,73818.5,-6.35,-32.63,-36.91,0,*51
1508860985.55,63050,11.06,73826.5,-6.35,-32.63,-36.85,0,*5C
1508860986.76,63051,11.06,73826.3,-6.35,-32.57,-36.85,0,*5A
1508860988.02,63052,11.06,73830.0,-6.35,-32.63,-36.91,0,*5B
1508860989.27,63053,11.06,73828.3,-6.35,-32.63,-36.91,0,*5A
1508860990.53,63054,11.06,73826.0,-6.35,-32.75,-36.91,0,*5A
1508860991.79,63055,11.06,73826.5,-6.35,-32.79,-37.21,0,*5D
1508860993.02,63056,11.06,73822.5,-6.35,-32.97,-37.27,0,*58
1508860994.24,63057,11.06,73824.8,-6.37,-32.91,-37.27,0,*5D
1508860995.5,63058,11.06,73828.5,-6.35,-32.85,-37.09,0,*59
1508860996.76,63059,11.06,73832.3,-6.37,-32.85,-37.15,0,*57
1508860997.99,63060,11.06,73832.3,-6.37,-32.91,-37.15,0,*58
1508860999.24,63061,11.06,73826.0,-6.37,-32.79,-36.97,0,*54
1508861000.49,63062,11.06,73830.5,-6.37,-32.51,-36.79,0,*5D
1508861001.75,63063,11.06,73816.3,-6.37,-32.45,-36.73,0,*53
1508861003.02,63064,11.06,73814.0,-6.37,-32.63,-36.91,0,*5C
1508861004.25,63065,11.06,73814.3,-6.35,-32.29,-36.67,0,*58
1508861005.49,63066,11.06,73822.8,-6.35,-32.45,-36.67,0,*51
1508861006.7,63067,11.06,73806.8,-6.35,-32.57,-36.73,0,*56
1508861007.91,63068,11.06,73800.3,-6.35,-32.39,-36.73,0,*51
1508861009.15,63069,11.06,73814.5,-6.35,-32.29,-36.55,0,*55
1508861010.38,63070,11.06,73802.3,-6.35,-32.45,-36.73,0,*53
1508861011.61,63071,11.06,73808.8,-6.37,-32.39,-36.73,0,*5B
1508861012.82,63072,11.06,73800.8,-6.35,-31.79,-36.31,0,*5B
1508861014.07,63073,11.06,73790.0,-6.31,-32.19,-36.49,0,*54
1508861015.33,63074,11.06,73786.0,-6.33,-32.29,-36.67,0,*5E
1508861016.53,63075,11.06,73796.0,-6.31,-32.23,-36.67,0,*57
1508861017.79,63076,11.06,73812.3,-6.33,-32.13,-36.49,0,*59
1508861019.04,63077,11.06,73810.0,-6.33,-32.45,-36.73,0,*52
1508861020.3,63078,11.06,73810.5,-6.33,-32.63,-37.03,0,*5F
1508861021.56,63079,11.06,73814.8,-6.33,-32.79,-37.03,0,*55
1508861022.79,63080,11.06,73820.8,-6.31,-32.79,-37.03,0,*51
1508861024.08,63081,11.06,73824.0,-6.33,-32.85,-37.09,0,*5B
1508861025.36,63082,11.06,73830.3,-6.33,-32.97,-37.21,0,*51
1508861026.64,63083,11.06,73822.5,-6.33,-32.97,-37.21,0,*50
1508861027.92,63084,11.06,73814.3,-6.33,-32.79,-37.09,0,*5D
1508861029.18,63085,11.06,73820.3,-6.35,-32.75,-37.09,0,*56
1508861030.42,63086,11.06,73816.3,-6.35,-32.79,-37.03,0,*53
1508861031.68,63087,11.06,73824.0,-6.35,-32.85,-37.21,0,*51
1508861032.91,63088,11.06,73828.5,-6.35,-32.85,-37.27,0,*58
1508861034.17,63089,11.06,73828.5,-6.35,-32.97,-37.39,0,*55
1508861035.4,63090,11.06,73830.3,-6.35,-32.45,-36.73,0,*5D
1508861036.63,63091,11.06,73830.3,-6.35,-32.45,-36.85,0,*55
1508861037.84,63092,11.06,73820.8,-6.35,-32.57,-36.73,0,*5C
1508861039.08,63093,11.06,73820.3,-6.35,-32.79,-37.03,0,*57
1508861040.33,63094,11.06,73816.8,-6.37,-32.85,-37.27,0,*57
1508861041.58,63095,11.06,73818.8,-6.37,-32.85,-37.27,0,*56
1508861042.84,63096,11.06,73822.8,-6.35,-32.97,-37.21,0,*52
1508861044.1,63097,11.06,73822.8,-6.35,-32.85,-37.21,0,*50
1508861045.32,63098,11.06,73824.0,-6.37,-33.03,-37.27,0,*54
1508861046.55,63099,11.06,73824.8,-6.37,-33.03,-37.33,0,*50
1508861047.8,63100,11.06,73826.5,-6.37,-32.91,-37.09,0,*52
1508861049.02,63101,11.06,73824.5,-6.37,-32.91,-37.27,0,*5F
1508861050.25,63102,11.06,73824.8,-6.37,-32.91,-37.15,0,*5D
1508861051.5,63103,11.06,73826.8,-6.37,-33.09,-37.33,0,*58
1508861052.75,63104,11.06,73828.3,-6.37,-33.09,-37.45,0,*5E
1508861053.97,63105,11.06,73828.3,-6.37,-32.91,-37.45,0,*5F
1508861055.19,63106,11.06,73824.0,-6.37,-33.03,-37.45,0,*56
1508861056.42,63107,11.06,73826.5,-6.39,-32.97,-37.03,0,*57
1508861057.68,63108,11.06,73824.3,-6.39,-32.97,-37.21,0,*58
1508861058.89,63109,11.06,73826.5,-6.39,-32.91,-37.15,0,*58
1508861060.09,63110,11.06,73824.5,-6.39,-32.91,-37.33,0,*54
1508861061.32,63111,11.06,73822.3,-6.39,-32.85,-37.03,0,*53
1508861062.55,63112,11.06,73820.0,-6.41,-32.91,-37.33,0,*59
1508861063.8,63113,11.06,73818.5,-6.41,-32.91,-37.21,0,*5B
1508861065.04,63114,11.06,73818.5,-6.39,-32.85,-37.03,0,*56
1508861066.29,63115,11.06,73822.3,-6.41,-32.75,-36.97,0,*5B
1508861067.53,63116,11.06,73820.8,-6.39,-32.85,-37.03,0,*54
1508861068.78,63117,11.06,73822.0,-6.41,-32.39,-36.79,0,*51
1508861069.99,63118,11.06,73828.5,-6.39,-32.91,-37.03,0,*5F
1508861071.22,63119,11.06,73822.8,-6.41,-32.91,-37.15,0,*56
1508861072.44,63120,11.06,73826.0,-6.41,-32.91,-37.03,0,*5B
1508861073.68,63121,11.06,73826.8,-6.39,-32.85,-37.15,0,*57
1508861074.91,63122,11.06,73826.3,-6.41,-32.91,-37.03,0,*59
1508861076.17,63123,11.06,73822.0,-6.41,-32.85,-37.15,0,*5A
1508861077.38,63124,11.06,73824.0,-6.39,-32.39,-36.67,0,*51
1508861078.59,63125,11.06,73830.0,-6.39,-32.57,-36.85,0,*54
1508861079.81,63126,11.06,73830.0,-6.41,-32.57,-36.85,0,*58
1508861081.05,63127,11.06,73824.5,-6.39,-32.75,-36.97,0,*55
1508861082.29,63128,11.06,73826.0,-6.39,-32.75,-37.15,0,*51
1508861083.55,63129,11.06,73826.3,-6.41,-32.85,-36.97,0,*5B
1508861084.76,63130,11.06,73826.5,-6.39,-32.69,-36.97,0,*5E
1508861086.01,63131,11.06,73828.3,-6.41,-32.57,-36.79,0,*5D
1508861087.22,63132,11.06,73830.3,-6.39,-32.69,-36.85,0,*5F
1508861088.45,63133,11.06,73830.5,-6.39,-32.39,-36.79,0,*58
1508861089.66,63134,11.06,73828.8,-6.39,-32.39,-36.67,0,*50
1508861090.87,63135,11.06,73830.5,-6.39,-32.39,-36.67,0,*51
1508861092.11,63136,11.06,73828.0,-6.39,-32.57,-36.79,0,*55
1508861093.34,63137,11.06,73830.0,-6.41,-32.69,-36.85,0,*55
1508861094.57,63138,11.06,73830.0,-6.39,-32.75,-36.85,0,*58
1508861095.78,63139,11.06,73828.3,-6.39,-32.69,-36.85,0,*54
1508861096.99,63140,11.06,73832.3,-6.39,-32.69,-36.85,0,*5A
1508861098.23,63141,11.06,73830.3,-6.41,-32.69,-36.97,0,*57
1508861099.46,63142,11.06,73830.3,-6.39,-32.51,-36.79,0,*50
1508861100.71,63143,11.06,73828.8,-6.41,-32.69,-36.79,0,*55
1508861101.94,63144,11.06,73828.5,-6.41,-32.57,-36.85,0,*5C
1508861103.17,63145,11.06,73830.0,-6.39,-32.51,-36.79,0,*57
1508861104.4,63146,11.06,73824.5,-6.39,-32.39,-36.61,0,*53
1508861105.63,63147,11.06,73824.0,-6.39,-32.35,-36.61,0,*5E
1508861106.84,63148,11.06,73826.0,-6.39,-32.69,-36.85,0,*52
1508861108.05,63149,11.06,73830.0,-6.39,-32.39,-36.67,0,*5A
1508861109.31,63150,11.06,73824.8,-6.39,-32.07,-36.49,0,*53
1508861110.56,63151,11.06,73824.3,-6.37,-32.35,-36.61,0,*57
1508861111.81,63152,11.06,73824.8,-6.37,-32.45,-36.73,0,*50
1508861113.07,63153,11.06,73826.0,-6.37,-32.63,-36.73,0,*55
1508861114.32,63154,11.06,73820.8,-6.39,-32.19,-36.49,0,*58
1508861115.55,63155,11.06,73820.8,-6.39,-32.35,-36.61,0,*5D
1508861116.76,63156,11.06,73820.0,-6.39,-32.57,-36.85,0,*50
1508861117.99,63157,11.06,73824.5,-6.39,-32.57,-36.79,0,*52
1508861119.23,63158,11.06,73830.5,-6.37,-32.13,-36.37,0,*59
1508861120.49,63159,11.06,73830.5,-6.37,-32.19,-36.43,0,*51
1508861121.75,63160,11.06,73834.5,-6.37,-32.19,-36.43,0,*5B
1508861122.98,63161,11.06,73828.0,-6.37,-32.51,-36.73,0,*55
1508861124.2,63162,11.06,73826.8,-6.37,-32.35,-36.73,0,*54
1508861125.43,63163,11.06,73834.5,-6.37,-32.51,-36.67,0,*52
1508861126.69,63164,11.06,73832.3,-6.37,-32.69,-36.79,0,*51
1508861127.92,63165,11.06,73834.5,-6.37,-32.51,-36.73,0,*51
1508861129.15,63166,11.06,73830.8,-6.37,-32.51,-36.73,0,*52
1508861130.38,63167,11.06,73824.5,-6.35,-32.29,-36.55,0,*5A
1508861131.61,63168,11.06,73830.3,-6.35,-32.13,-36.37,0,*58
1508861132.87,63169,11.06,73824.5,-6.37,-32.29,-36.55,0,*56
1508861134.12,63170,11.06,73822.8,-6.37,-32.29,-36.55,0,*5E
1508861135.38,63171,11.06,73820.8,-6.37,-32.29,-36.55,0,*5F
1508861136.63,63172,11.06,73822.5,-6.37,-32.45,-36.73,0,*52
1508861137.89,63173,11.06,73824.3,-6.37,-32.69,-36.91,0,*51
1508861139.14,63174,11.06,73820.3,-6.37,-32.35,-36.61,0,*50
1508861140.36,63175,11.06,73824.0,-6.35,-32.63,-36.85,0,*5A
1508861141.62,63176,11.06,73826.8,-6.37,-32.45,-36.73,0,*56
1508861142.85,63177,11.06,73826.5,-6.37,-32.51,-36.73,0,*52
1508861144.08,63178,11.06,73826.0,-6.35,-32.23,-36.61,0,*59
1508861145.31,63179,11.06,73824.8,-6.35,-32.45,-36.73,0,*5B
1508861146.56,63180,11.06,73822.0,-6.37,-32.51,-36.91,0,*56
1508861147.81,63181,11.06,73830.5,-6.35,-32.29,-36.37,0,*56
1508861149.04,63182,11.06,73830.0,-6.37,-32.13,-36.31,0,*58
1508861150.3,63183,11.06,73824.5,-6.37,-32.19,-36.55,0,*51
1508861151.57,63184,11.06,73830.3,-6.37,-32.29,-36.61,0,*52
1508861152.81,63185,11.06,73824.0,-6.35,-32.63,-36.73,0,*5C
1508861154.06,63186,11.06,73826.8,-6.35,-32.45,-36.79,0,*51
1508861155.31,63187,11.06,73826.0,-6.37,-32.51,-36.79,0,*57
1508861156.59,63188,11.06,73820.5,-6.37,-32.63,-36.91,0,*5F
1508861157.82,63189,11.06,73824.0,-6.35,-32.63,-36.85,0,*59
1508861159.07,63190,11.0,73822.3,-6.37,-32.45,-36.73,0,*5E
1508861160.27,63191,11.0,73820.8,-6.35,-32.35,-36.73,0,*5A
1508861161.51,63192,11.06,73824.8,-6.35,-32.45,-36.55,0,*5A
1508861162.75,63193,11.06,73824.0,-6.35,-32.45,-36.67,0,*5A
1508861164.0,63194,11.06,73824.8,-6.37,-32.29,-36.55,0,*54
1508861165.24,63195,11.06,73828.5,-6.35,-32.07,-36.31,0,*59
1508861166.5,63196,11.06,73828.5,-6.37,-32.19,-36.43,0,*52
1508861167.71,63197,11.06,73830.0,-6.35,-32.13,-36.31,0,*5E
1508861168.92,63198,11.06,73826.3,-6.35,-32.39,-36.67,0,*5A
1508861170.15,63199,11.06,73828.5,-6.37,-32.51,-36.73,0,*52
1508861171.38,63200,11.06,73828.8,-6.35,-32.29,-36.67,0,*59
1508861172.58,63201,11.06,73828.3,-6.35,-32.57,-36.85,0,*5D
1508861173.8,63202,11.06,73826.5,-6.35,-32.39,-36.55,0,*5B
1508861175.01,63203,11.06,73830.0,-6.35,-32.39,-36.67,0,*5B
1508861176.24,63204,11.06,73830.3,-6.35,-32.29,-36.67,0,*5D
1508861177.48,63205,11.06,73830.3,-6.35,-32.45,-36.73,0,*53
1508861178.69,63206,11.0,73828.5,-6.35,-32.39,-36.67,0,*5E
1508861179.95,63207,11.06,73834.3,-6.35,-32.79,-36.91,0,*52
1508861181.21,63208,11.0,73830.3,-6.35,-32.63,-36.91,0,*56
1508861182.46,63209,11.06,73830.8,-6.33,-32.63,-36.73,0,*5D
1508861183.69,63210,11.0,73828.8,-6.37,-32.51,-36.73,0,*50
1508861184.9,63211,11.06,73828.3,-6.35,-32.57,-36.85,0,*5C
1508861186.13,63212,11.06,73826.0,-6.35,-32.63,-36.85,0,*58
1508861187.33,63213,11.06,73828.0,-6.35,-32.13,-36.31,0,*51
1508861188.57,63214,11.0,73824.0,-6.35,-32.29,-36.67,0,*5C
1508861189.78,63215,11.06,73830.0,-6.35,-32.39,-36.67,0,*5C
1508861191.01,63216,11.06,73830.0,-6.37,-32.51,-36.73,0,*56
1508861192.22,63217,11.06,73828.5,-6.35,-32.39,-36.67,0,*5E
1508861193.45,63218,11.06,73826.0,-6.37,-32.51,-36.73,0,*58
1508861194.66,63219,11.06,73828.0,-6.35,-32.39,-36.73,0,*55
1508861195.92,63220,11.06,73824.8,-6.37,-32.19,-36.31,0,*59
1508861197.15,63221,11.06,73826.8,-6.35,-31.95,-36.31,0,*5D
1508861198.39,63222,11.06,73826.5,-6.35,-31.95,-36.31,0,*5E
1508861199.6,63223,11.06,73826.5,-6.35,-31.79,-36.07,0,*58
1508861200.83,63224,11.0,73824.5,-6.35,-32.23,-36.49,0,*59
1508861202.06,63225,11.06,73826.3,-6.35,-32.45,-36.67,0,*54
1508861203.33,63226,11.06,73826.5,-6.35,-32.07,-36.25,0,*57
1508861204.57,63227,11.0,73826.8,-6.35,-32.45,-36.67,0,*56
1508861205.78,63228,11.06,73832.5,-6.35,-32.39,-36.73,0,*57
1508861207.0,63229,11.0,73828.5,-6.35,-32.23,-36.49,0,*54
1508861208.22,63230,11.06,73828.0,-6.35,-32.57,-36.67,0,*53
1508861209.43,63231,11.06,73834.8,-6.35,-32.57,-36.67,0,*52
1508861210.64,63232,11.0,73834.0,-6.35,-32.57,-36.73,0,*54
1508861211.9,63233,11.0,73832.3,-6.37,-32.45,-36.73,0,*54
1508861213.13,63234,11.06,73824.5,-6.35,-32.45,-36.67,0,*54
1508861214.34,63235,11.06,73826.8,-6.31,-32.39,-36.67,0,*5A
1508861215.55,63236,11.06,73814.0,-6.35,-32.13,-36.31,0,*56
1508861216.81,63237,11.0,73812.8,-6.37,-31.85,-36.01,0,*5A
1508861218.08,63238,11.06,73816.3,-6.33,-31.79,-35.95,0,*5C
1508861219.34,63239,11.06,73820.8,-6.33,-31.95,-36.31,0,*52
1508861220.57,63240,11.0,73824.5,-6.33,-32.13,-36.31,0,*51
1508861221.83,63241,11.06,73826.5,-6.33,-32.29,-36.67,0,*5A
1508861223.08,63242,11.0,73820.8,-6.33,-32.23,-36.37,0,*56
1508861224.33,63243,11.0,73820.3,-6.33,-32.29,-36.55,0,*59
1508861225.59,63244,11.06,73822.0,-6.33,-32.45,-36.73,0,*50
1508861226.85,63245,11.06,73830.5,-6.33,-32.45,-36.73,0,*51
1508861228.08,63246,11.0,73826.3,-6.33,-32.39,-36.67,0,*5C
1508861229.32,63247,11.06,73830.0,-6.33,-32.39,-36.67,0,*5D
1508861230.58,63248,11.0,73828.3,-6.33,-32.29,-36.55,0,*52
1508861231.81,63249,11.0,73828.8,-6.33,-32.57,-36.67,0,*5B
1508861233.1,63250,11.06,73820.0,-6.33,-32.79,-36.91,0,*56
1508861234.38,63251,11.06,73814.8,-6.33,-32.75,-36.91,0,*5B
1508861235.61,63252,11.06,73812.3,-6.31,-32.69,-36.79,0,*51
1508861236.85,63253,11.0,73812.0,-6.33,-32.39,-36.55,0,*59
1508861238.09,63254,11.0,73818.5,-6.33,-32.39,-36.55,0,*5E
1508861239.33,63255,11.06,73818.5,-6.33,-32.23,-36.37,0,*50
1508861240.57,63256,11.06,73822.0,-6.33,-32.57,-36.67,0,*55
1508861241.82,63257,11.0,73822.8,-6.33,-32.23,-36.49,0,*5B
1508861243.06,63258,11.0,73818.8,-6.33,-32.39,-36.55,0,*52
1508861244.3,63259,11.0,73820.3,-6.33,-32.39,-36.67,0,*52
1508861245.57,63260,11.0,73818.5,-6.33,-32.29,-36.49,0,*55
1508861246.85,63261,11.0,73816.8,-6.33,-32.29,-36.49,0,*54
1508861248.07,63262,11.06,73822.3,-6.31,-32.13,-36.49,0,*5C
1508861249.3,63263,11.0,73820.5,-6.31,-32.39,-36.61,0,*5F
1508861250.54,63264,11.0,73820.0,-6.33,-32.57,-36.67,0,*54
1508861251.79,63265,11.0,73816.3,-6.31,-32.19,-36.49,0,*51
1508861253.03,63266,11.0,73816.3,-6.33,-32.57,-36.67,0,*56
1508861254.27,63267,11.06,73820.0,-6.33,-32.57,-36.73,0,*52
1508861255.5,63268,11.0,73814.8,-6.33,-32.57,-36.73,0,*5D
1508861256.76,63269,11.0,73814.3,-6.33,-32.45,-36.73,0,*5F
1508861258.04,63270,11.0,73814.8,-6.33,-32.07,-36.25,0,*52
1508861259.3,63271,11.06,73820.0,-6.31,-31.91,-36.25,0,*5D
1508861260.59,63272,11.06,73818.8,-6.33,-32.07,-36.25,0,*50
1508861261.88,63273,11.06,73818.5,-6.33,-31.95,-36.25,0,*59
1508861263.11,63274,11.06,73814.5,-6.31,-32.19,-36.43,0,*5B
1508861264.32,63275,11.0,73816.8,-6.31,-32.01,-36.31,0,*56
1508861265.53,63276,11.0,73816.0,-6.31,-32.23,-36.31,0,*55
1508861266.75,63277,11.06,73826.3,-6.31,-32.23,-36.49,0,*5B
1508861267.98,63278,11.06,73824.3,-6.31,-32.39,-36.61,0,*55
1508861269.19,63279,11.0,73820.3,-6.31,-32.51,-36.67,0,*5C
1508861270.4,63280,11.0,73812.3,-6.31,-32.51,-36.67,0,*5A
1508861271.63,63281,11.0,73812.3,-6.31,-32.39,-36.49,0,*59
1508861272.85,63282,11.0,73812.8,-6.31,-32.23,-36.49,0,*51
1508861274.08,63283,11.0,73816.0,-6.31,-32.19,-36.43,0,*53
1508861275.32,63284,11.06,73818.8,-6.31,-32.01,-36.25,0,*5D
1508861276.52,63285,11.0,73820.5,-6.31,-32.35,-36.43,0,*5B
1508861277.73,63286,11.0,73818.0,-6.31,-32.69,-36.85,0,*5B
1508861278.96,63287,11.0,73822.3,-6.29,-32.69,-36.97,0,*50
1508861280.22,63288,11.0,73826.8,-6.25,-32.63,-36.91,0,*5F
1508861281.45,63289,11.06,73828.3,-6.31,-32.79,-36.85,0,*55
1508861282.65,63290,11.0,73828.5,-6.31,-32.69,-36.85,0,*5C
1508861283.91,63291,11.0,73822.0,-6.29,-32.57,-36.79,0,*5A
1508861285.14,63292,11.0,73822.5,-6.29,-32.69,-36.97,0,*54
1508861286.37,63293,11.0,73814.3,-6.31,-32.63,-36.67,0,*59
1508861287.59,63294,11.0,73812.5,-6.31,-32.35,-36.61,0,*5B
1508861288.88,63295,11.0,73818.3,-6.33,-31.91,-36.13,0,*50
1508861290.13,63296,11.0,73816.3,-6.29,-31.91,-36.07,0,*5D
1508861291.41,63297,11.0,73820.0,-6.29,-32.07,-36.25,0,*50
1508861292.7,63298,11.06,73822.5,-6.29,-32.19,-36.25,0,*50
1508861293.94,63299,11.0,73814.5,-6.29,-32.23,-36.49,0,*52
1508861295.18,63300,11.0,73820.3,-6.25,-31.95,-36.19,0,*54
1508861296.43,63301,11.0,73820.5,-6.29,-32.39,-36.61,0,*53
1508861297.68,63302,11.0,73816.0,-6.29,-32.23,-36.61,0,*5B